Simultaneous Nadir Overpasses (SNOs) Predictions

Prediction of SNOs between FY3D and METOP-C Satellite Orbit:

Table of predicted SNOs for the next 14.0 days since TLE Epoch: 12/27/2019
Index Date (FY3D) Time (FY3D) Lat,Lon (FY3D) SZA (FY3D ) Date (METOP-C) Time (METOP-C) Lat,Lon (METOP-C) SZA (METOP-C ) Distance(km) Time Diff (sec)
1 01/09/2020 04:37:22 73.64, 101.57 95.99 01/09/2020 04:38:28 73.58, 104.30 95.80 85.81 66
2 01/09/2020 05:28:04 -73.57, -90.96 84.09 01/09/2020 05:29:11 -73.52, -88.50 84.26 77.80 67
3 01/09/2020 06:18:45 73.33, 76.90 95.65 01/09/2020 06:19:55 73.26, 78.25 95.51 43.89 70
4 01/09/2020 07:09:27 -73.27,-115.64 84.43 01/09/2020 07:10:38 -73.21,-114.53 84.55 36.06 71
5 01/09/2020 08:00:08 73.03, 52.21 95.30 01/09/2020 08:01:21 73.00, 52.34 95.26 5.35 73
6 01/09/2020 08:50:50 -72.96,-140.34 84.77 01/09/2020 08:52:04 -72.95,-140.44 84.80 3.69 74
7 01/09/2020 09:41:36 72.97, 26.95 95.23 01/09/2020 09:42:42 72.99, 26.97 95.24 1.77 66
8 01/09/2020 10:32:19 -72.96,-165.70 84.79 01/09/2020 10:33:24 -72.99,-165.70 84.77 2.95 65
9 01/09/2020 11:23:05 72.97, 1.59 95.22 01/09/2020 11:24:03 72.97, 1.61 95.21 0.95 58
10 01/09/2020 12:13:48 -72.95, 168.94 84.80 01/09/2020 12:14:45 -72.97, 168.94 84.79 2.11 57
11 01/09/2020 13:04:34 72.96, -23.77 95.20 01/09/2020 13:05:24 72.96, -23.75 95.19 0.44 50
12 01/09/2020 13:55:17 -72.95, 143.58 84.82 01/09/2020 13:56:06 -72.96, 143.58 84.82 1.29 49
13 01/09/2020 14:46:03 72.95, -49.13 95.19 01/09/2020 14:46:45 72.95, -49.12 95.17 1.00 42
14 01/09/2020 15:36:46 -72.94, 118.22 84.83 01/09/2020 15:37:27 -72.95, 118.21 84.84 0.48 41
15 01/09/2020 16:27:32 72.95, -74.49 95.17 01/09/2020 16:28:06 72.93, -74.48 95.15 1.83 34
16 01/09/2020 17:18:15 -72.94, 92.86 84.85 01/09/2020 17:18:48 -72.94, 92.85 84.86 0.45 33
17 01/09/2020 18:09:01 72.94, -99.85 95.16 01/09/2020 18:09:27 72.92, -99.84 95.13 2.68 26
18 01/09/2020 18:59:44 -72.93, 67.50 84.86 01/09/2020 19:00:09 -72.92, 67.49 84.88 1.25 25
19 01/09/2020 19:50:30 72.94,-125.21 95.14 01/09/2020 19:50:48 72.91,-125.21 95.11 3.55 18
20 01/09/2020 20:41:13 -72.93, 42.14 84.88 01/09/2020 20:41:30 -72.91, 42.12 84.90 2.08 17
21 01/09/2020 21:31:59 72.93,-150.57 95.13 01/09/2020 21:32:08 72.94,-150.46 95.13 3.51 9
22 01/09/2020 22:22:42 -72.92, 16.78 84.90 01/09/2020 22:22:51 -72.90, 16.76 84.92 2.91 9
23 01/09/2020 23:13:28 72.93,-175.93 95.11 01/09/2020 23:13:29 72.93,-175.83 95.11 3.19 1
24 01/10/2020 00:04:11 -72.92, -8.58 84.91 01/10/2020 00:04:11 -72.93, -8.50 84.90 3.41 0
25 01/10/2020 00:54:57 72.92, 158.71 95.10 01/10/2020 00:54:50 72.92, 158.81 95.09 3.08 7
26 01/10/2020 01:45:40 -72.91, -33.94 84.93 01/10/2020 01:45:32 -72.92, -33.86 84.92 2.92 8




NCC Satellite Simultaneous Nadir Overpasses (SNOs) Prediction Service
